Location: Colossi of Memnon
(25.7167°N, 32.6167°E)
Time: 10:45:36
(UTC+00:00)

CZ-3 R/B - Pass Details

Date: 05 March 2021
Orbit: 386 x 10219 km, 28.4° (Epoch: 21 April)

Event Time Altitude Azimuth Distance (km) Brightness Sun altitude
Rises 23:50:16 0° 231° (SW) 15,145 7.3 -57.3°
Enters shadow 00:06:18 - 229° (SW) 13,446 6.9 -54.2°
Exits shadow 00:49:53 48° 199° (SSW) 5,245 4.8 -45.2°
Maximum altitude 00:56:25 56° 161° (SSE) 3,865 4.3 -43.8°
Drops below altitude 10° 01:07:43 10° 86° (E) 3,920 5.3 -41.3°
Sets 01:09:47 0° 81° (E) 4,421 5.8 -40.9°
